Weather History for KBKX - May, 2013

Change the Weather History Date:

Wednesday, May 1, 2013

  Actual Average Record
Temperature  
Mean Temperature 40 °F -  
Max Temperature 48 °F 61 °F 82 °F (2012)
Min Temperature 33 °F 39 °F 26 °F (1997)
Degree Days  
Heating Degree Days 24    
Moisture  
Dew Point 25 °F    
Average Humidity 59    
Maximum Humidity 75    
Minimum Humidity 42    
Precipitation  
Precipitation 0.00 in - - ()
Sea Level Pressure  
Sea Level Pressure 30.35 in    
Wind  
Wind Speed 15 mph (North)    
Max Wind Speed 22 mph    
Max Gust Speed 29 mph    
Visibility 10 miles    
Events      
Averages and records for this station are not official NWS values.
T = Trace of Precipitation, MM = Missing Value Source: NWS Daily Summary

Daily Weather History Graph

Daily Weather History Graph

Search for Another Location

Airport or City:

Trip Planner

Search our weather history database for the weather conditions in past years. The results will help you decide how hot, cold, wet, or windy it might be!

Date:

Astronomy

May. 01, 2013 Rise Set
Actual Time 6:17 AM CDT 8:31 PM CDT
Civil Twilight 5:45 AM CDT 9:03 PM CDT
Nautical Twilight 5:06 AM CDT 9:43 PM CDT
Astronomical Twilight 4:22 AM CDT 10:27 PM CDT
Moon 1:42 AM CDT (5/1) 11:57 AM CDT (5/1)
Length of Visible Light 15h 17m
Length of Day
14h 13m
Waning Gibbous, 59% of the Moon is Illuminated
May 1
Waning Gibbous
May 2
Last Quarter
May 9
New
May 17
First Quarter
May 24
Full

Hourly Weather History & Observations

Time (CDT) Temp. Windchill Dew Point Humidity Pressure Visibility Wind Dir Wind Speed Gust Speed Precip Events Conditions
12:15 AM 48.2 °F - 30.2 °F 50% 30.08 in 10.0 mi NW 16.1 mph - N/A   Overcast
12:35 AM 46.4 °F 39.5 °F 30.2 °F 53% 30.10 in 10.0 mi NW 17.3 mph 23.0 mph N/A   Overcast
12:55 AM 46.4 °F 41.5 °F 32.0 °F 57% 30.10 in 10.0 mi NNW 10.4 mph - N/A   Overcast
1:15 AM 46.4 °F 41.1 °F 32.0 °F 57% 30.10 in 10.0 mi NNW 11.5 mph - N/A   Overcast
1:35 AM 44.6 °F 37.8 °F 32.0 °F 61% 30.13 in 10.0 mi North 15.0 mph 19.6 mph N/A   Overcast
1:55 AM 42.8 °F 35.8 °F 30.2 °F 61% 30.13 in 10.0 mi North 13.8 mph - N/A   Overcast
2:15 AM 42.8 °F 35.1 °F 28.4 °F 57% 30.15 in 10.0 mi North 16.1 mph - N/A   Overcast
2:35 AM 41.0 °F 33.5 °F 28.4 °F 61% 30.15 in 10.0 mi North 13.8 mph - N/A   Overcast
2:55 AM 39.2 °F 31.2 °F 28.4 °F 65% 30.12 in 10.0 mi North 13.8 mph - N/A   Overcast
3:15 AM 39.2 °F 30.5 °F 28.4 °F 65% 30.12 in 10.0 mi North 16.1 mph - N/A   Mostly Cloudy
3:35 AM 37.4 °F 28.5 °F 26.6 °F 65% 30.15 in 10.0 mi North 15.0 mph - N/A   Scattered Clouds
3:55 AM 37.4 °F 28.5 °F 26.6 °F 65% 30.18 in 10.0 mi NNW 15.0 mph - N/A   Mostly Cloudy
4:15 AM 37.4 °F 28.2 °F 24.8 °F 60% 30.17 in 10.0 mi North 16.1 mph - N/A   Overcast
4:35 AM 35.6 °F 25.9 °F 24.8 °F 65% 30.17 in 10.0 mi NNW 16.1 mph 20.7 mph N/A   Overcast
4:55 AM 35.6 °F 25.2 °F 24.8 °F 65% 30.18 in 10.0 mi NNW 18.4 mph - N/A   Overcast
5:15 AM 35.6 °F 27.5 °F 24.8 °F 65% 30.21 in 10.0 mi NNW 11.5 mph - N/A   Overcast
5:35 AM 35.6 °F 27.1 °F 26.6 °F 70% 30.22 in 10.0 mi NNW 12.7 mph - N/A   Overcast
5:55 AM 35.6 °F 27.5 °F 24.8 °F 65% 30.25 in 10.0 mi NNW 11.5 mph - N/A   Overcast
6:15 AM 35.6 °F 26.6 °F 24.8 °F 65% 30.28 in 10.0 mi NNW 13.8 mph 17.3 mph N/A   Overcast
6:35 AM 35.6 °F 27.5 °F 26.6 °F 70% 30.29 in 10.0 mi NNW 11.5 mph - N/A   Overcast
6:55 AM 35.6 °F 27.1 °F 26.6 °F 70% 30.30 in 10.0 mi NNW 12.7 mph - N/A   Overcast
7:15 AM 35.6 °F 26.6 °F 24.8 °F 65% 30.31 in 10.0 mi North 13.8 mph - N/A   Overcast
7:35 AM 33.8 °F 24.8 °F 24.8 °F 70% 30.32 in 10.0 mi North 12.7 mph - N/A   Overcast
7:55 AM 33.8 °F 23.9 °F 24.8 °F 70% 30.32 in 10.0 mi North 15.0 mph - N/A   Overcast
8:15 AM 33.8 °F 23.5 °F 24.8 °F 70% 30.31 in 10.0 mi NNE 16.1 mph - N/A   Overcast
8:35 AM 35.6 °F 26.2 °F 24.8 °F 65% 30.31 in 10.0 mi North 15.0 mph - N/A   Overcast
8:55 AM 35.6 °F 25.9 °F 24.8 °F 65% 30.32 in 10.0 mi North 16.1 mph - N/A   Overcast
9:15 AM 35.6 °F 26.6 °F 24.8 °F 65% 30.34 in 10.0 mi North 13.8 mph - N/A   Overcast
9:35 AM 35.6 °F 27.1 °F 24.8 °F 65% 30.36 in 10.0 mi North 12.7 mph 17.3 mph N/A   Overcast
9:55 AM 35.6 °F 27.1 °F 24.8 °F 65% 30.36 in 10.0 mi NNW 12.7 mph - N/A   Overcast
10:15 AM 35.6 °F 26.6 °F 24.8 °F 65% 30.36 in 10.0 mi NNE 13.8 mph - N/A   Overcast
10:35 AM 37.4 °F 27.8 °F 24.8 °F 60% 30.35 in 10.0 mi North 17.3 mph - N/A   Mostly Cloudy
10:55 AM 37.4 °F 27.5 °F 24.8 °F 60% 30.35 in 10.0 mi North 18.4 mph - N/A   Scattered Clouds
11:15 AM 37.4 °F 28.2 °F 23.0 °F 56% 30.35 in 10.0 mi North 16.1 mph - N/A   Scattered Clouds
11:35 AM 37.4 °F 28.5 °F 24.8 °F 60% 30.37 in 10.0 mi North 15.0 mph 21.9 mph N/A   Mostly Cloudy
11:55 AM 39.2 °F 29.8 °F 24.8 °F 56% 30.37 in 10.0 mi NNW 18.4 mph 23.0 mph N/A   Scattered Clouds
12:15 PM 39.2 °F 30.2 °F 23.0 °F 52% 30.38 in 10.0 mi North 17.3 mph 21.9 mph N/A   Partly Cloudy
12:35 PM 41.0 °F 32.5 °F 23.0 °F 49% 30.39 in 10.0 mi North 17.3 mph 21.9 mph N/A   Scattered Clouds
12:55 PM 41.0 °F 32.5 °F 24.8 °F 53% 30.38 in 10.0 mi NNW 17.3 mph - N/A   Partly Cloudy
1:15 PM 41.0 °F 31.6 °F 24.8 °F 53% 30.38 in 10.0 mi NNW 20.7 mph - N/A   Clear
1:35 PM 41.0 °F 32.2 °F 23.0 °F 49% 30.38 in 10.0 mi NNW 18.4 mph 26.5 mph N/A   Clear
1:55 PM 39.2 °F 30.2 °F 23.0 °F 52% 30.40 in 10.0 mi North 17.3 mph 25.3 mph N/A   Clear
2:15 PM 41.0 °F 31.9 °F 21.2 °F 45% 30.39 in 10.0 mi NNW 19.6 mph 28.8 mph N/A   Mostly Cloudy
2:35 PM 42.8 °F 34.8 °F 21.2 °F 42% 30.40 in 10.0 mi North 17.3 mph 25.3 mph N/A   Mostly Cloudy
2:55 PM 42.8 °F 34.5 °F 21.2 °F 42% 30.41 in 10.0 mi North 18.4 mph 27.6 mph N/A   Mostly Cloudy
3:15 PM 42.8 °F 34.8 °F 21.2 °F 42% 30.42 in 10.0 mi North 17.3 mph 23.0 mph N/A   Mostly Cloudy
3:35 PM 42.8 °F 34.3 °F 23.0 °F 46% 30.41 in 10.0 mi NNW 19.6 mph 24.2 mph N/A   Scattered Clouds
3:55 PM 42.8 °F 34.5 °F 23.0 °F 46% 30.42 in 10.0 mi North 18.4 mph 23.0 mph N/A   Partly Cloudy
4:15 PM 42.8 °F 34.0 °F 23.0 °F 46% 30.42 in 10.0 mi North 20.7 mph 25.3 mph N/A   Partly Cloudy
4:35 PM 42.8 °F 33.8 °F 23.0 °F 46% 30.43 in 10.0 mi North 21.9 mph 28.8 mph N/A   Scattered Clouds
5:15 PM 42.8 °F 34.5 °F 23.0 °F 46% 30.45 in 10.0 mi NNE 18.4 mph 24.2 mph N/A   Mostly Cloudy
5:35 PM 42.8 °F 34.8 °F 24.8 °F 49% 30.45 in 10.0 mi NNE 17.3 mph 23.0 mph N/A   Mostly Cloudy
5:55 PM 42.8 °F 35.4 °F 23.0 °F 46% 30.46 in 10.0 mi North 15.0 mph - N/A   Partly Cloudy
6:15 PM 42.8 °F 35.1 °F 24.8 °F 49% 30.47 in 10.0 mi NNE 16.1 mph - N/A   Partly Cloudy
6:35 PM 42.8 °F 34.5 °F 24.8 °F 49% 30.47 in 10.0 mi NNE 18.4 mph 21.9 mph N/A   Mostly Cloudy
6:55 PM 41.0 °F 33.5 °F 23.0 °F 49% 30.48 in 10.0 mi NNE 13.8 mph 20.7 mph N/A   Overcast
7:15 PM 42.8 °F 34.8 °F 24.8 °F 49% 30.49 in 10.0 mi NNE 17.3 mph 20.7 mph N/A   Overcast
7:35 PM 41.0 °F 33.5 °F 24.8 °F 53% 30.50 in 10.0 mi NNE 13.8 mph 19.6 mph N/A   Overcast
7:55 PM 39.2 °F 30.5 °F 24.8 °F 56% 30.50 in 10.0 mi NNE 16.1 mph - N/A   Mostly Cloudy
8:35 PM 39.2 °F 31.6 °F 26.6 °F 61% 30.50 in 10.0 mi NNE 12.7 mph - N/A   Mostly Cloudy
8:55 PM 39.2 °F 31.6 °F 26.6 °F 61% 30.51 in 10.0 mi NE 12.7 mph 16.1 mph N/A   Partly Cloudy
9:35 PM 37.4 °F 28.5 °F 26.6 °F 65% 30.51 in 10.0 mi NNE 15.0 mph 18.4 mph N/A   Scattered Clouds
9:55 PM 37.4 °F 29.3 °F 26.6 °F 65% 30.52 in 10.0 mi NNE 12.7 mph - N/A   Partly Cloudy
10:15 PM 37.4 °F 29.3 °F 26.6 °F 65% 30.53 in 10.0 mi NNE 12.7 mph - N/A   Clear
10:35 PM 35.6 °F 27.1 °F 26.6 °F 70% 30.53 in 10.0 mi NNE 12.7 mph - N/A   Clear
10:55 PM 35.6 °F 26.6 °F 26.6 °F 70% 30.54 in 10.0 mi North 13.8 mph 19.6 mph N/A   Clear
11:15 PM 35.6 °F 27.5 °F 26.6 °F 70% 30.54 in 10.0 mi NNE 11.5 mph - N/A   Clear
11:35 PM 35.6 °F 25.9 °F 26.6 °F 70% 30.54 in 10.0 mi NNE 16.1 mph 20.7 mph N/A   Clear
11:55 PM 33.8 °F 23.9 °F 26.6 °F 75% 30.54 in 10.0 mi NNE 15.0 mph - N/A   Clear